EW0765 Weather Reports


Display with metric or nautical units.
time (UTC)temp
F
wind
direction
speed
MPH
gust
MPH
rain 1hr
in
rain 24hr
in
rain mn
in
humidity
%
barometer
mb
20260906204544 75 60 2.0 14.0 0.00 0.00 0.00 71 1016.8
20260906203055 74 344 0.0 6.0 0.00 0.00 0.00 73 1016.8
20260906201543 75 57 1.0 8.0 0.00 0.00 0.00 69 1016.8
20260906200046 75 37 2.0 9.0 0.00 0.00 0.00 68 1016.8
20260906194542 75 71 0.0 9.0 0.00 0.00 0.00 69 1016.8
20260906193101 75 335 1.0 6.0 0.00 0.00 0.00 72 1016.8
20260906191541 76 63 0.0 12.0 0.00 0.00 0.00 71 1017.1
20260906190040 75 123 0.0 10.0 0.00 0.00 0.00 70 1017.2
20260906184545 74 47 2.0 9.0 0.00 0.00 0.00 68 1017.3
20260906183039 74 13 1.0 10.0 0.00 0.00 0.00 69 1017.3
20260906181602 74 94 0.0 10.0 0.00 0.00 0.00 69 1017.4
20260906180039 74 66 0.0 8.0 0.00 0.00 0.00 72 1017.5
20260906174544 75 164 2.0 13.0 0.00 0.00 0.00 70 1017.5
20260906173037 75 278 0.0 4.0 0.00 0.00 0.00 71 1017.4
20260906171545 76 67 1.0 8.0 0.00 0.00 0.00 67 1017.5
20260906170038 76 97 1.0 7.0 0.00 0.00 0.00 63 1017.5
20260906164541 76 89 0.0 6.0 0.00 0.00 0.00 61 1017.6
20260906163034 76 90 1.0 8.0 0.00 0.00 0.00 61 1017.6
20260906161530 75 79 1.0 9.0 0.00 0.00 0.00 65 1017.7
20260906160029 74 102 2.0 8.0 0.00 0.18 0.00 66 1017.8
20260906154538 74 337 1.0 8.0 0.00 0.18 0.00 67 1017.8
20260906153028 74 103 1.0 10.0 0.00 0.18 0.00 67 1017.7
20260906151525 74 98 4.0 11.0 0.00 0.18 0.00 68 1017.8
20260906150024 73 101 2.0 7.0 0.00 0.18 0.00 74 1017.9
20260906144523 72 98 2.0 7.0 0.00 0.18 0.00 76 1017.8
20260906143020 72 92 1.0 7.0 0.00 0.18 0.00 79 1017.7
20260906141512 70 32 1.0 8.0 0.00 0.18 0.00 83 1017.7
20260906140008 68 84 1.0 6.0 0.00 0.18 0.00 88 1017.5
20260906134504 65 87 0.0 3.0 0.00 0.18 0.00 94 1017.4
20260906133117 64 82 0.0 3.0 0.00 0.18 0.00 96 1017.4
20260906131556 62 67 0.0 0.0 0.00 0.18 0.00 96 1017.5
20260906130103 61 67 0.0 0.0 0.00 0.18 0.00 96 1017.3
20260906124551 59 68 0.0 0.0 0.00 0.18 0.00 96 1017.2
20260906123049 58 68 0.0 0.0 0.00 0.18 0.00 95 1017.0
20260906121548 57 67 0.0 0.0 0.00 0.18 0.00 95 1016.9
20260906120049 57 67 0.0 0.0 0.00 0.18 0.00 94 1016.9
20260906114555 56 67 0.0 0.0 0.00 0.18 0.00 94 1016.9
20260906113043 56 67 0.0 0.0 0.00 0.18 0.00 94 1016.6
20260906111541 56 68 0.0 0.0 0.00 0.18 0.00 94 1016.3
20260906110039 56 67 0.0 0.0 0.00 0.18 0.00 94 1016.2
20260906104547 56 67 0.0 0.0 0.00 0.18 0.00 94 1016.2
20260906103038 57 67 0.0 0.0 0.00 0.18 0.00 94 1016.2
20260906101536 57 67 0.0 0.0 0.00 0.18 0.00 94 1016.2
20260906100035 57 68 0.0 0.0 0.00 0.18 0.00 94 1016.1
20260906094554 57 67 0.0 0.0 0.00 0.18 0.00 94 1016.0
20260906093042 57 67 0.0 0.0 0.00 0.18 0.00 93 1016.1
20260906091531 57 68 0.0 0.0 0.00 0.18 0.00 94 1015.9
20260906090032 57 67 0.0 0.0 0.00 0.18 0.00 93 1016.0
20260906084529 57 67 0.0 0.0 0.00 0.18 0.00 93 1016.0
20260906083041 58 67 0.0 0.0 0.00 0.18 0.00 93 1015.6
20260906081532 58 68 0.0 0.0 0.00 0.18 0.00 93 1015.6
20260906080031 58 67 0.0 0.0 0.00 0.18 0.00 93 1015.4
20260906074527 58 67 0.0 0.0 0.00 0.18 0.00 93 1015.2
20260906073025 58 67 0.0 0.0 0.00 0.18 0.00 93 1015.1
20260906071519 58 67 0.0 0.0 0.00 0.18 0.00 93 1015.2
20260906070018 59 67 0.0 0.0 0.00 0.18 0.00 93 1015.1
20260906064517 59 67 0.0 0.0 0.00 0.18 0.00 92 1015.2
20260906063018 59 67 0.0 0.0 0.00 0.18 0.00 92 1015.2
20260906061513 59 67 0.0 0.0 0.00 0.18 0.00 92 1015.0
20260906060011 60 67 0.0 0.0 0.00 0.18 0.00 92 1015.0
20260906054510 60 68 0.0 0.0 0.00 0.18 0.00 92 1015.0
20260906053010 60 67 0.0 0.0 0.00 0.18 0.00 92 1015.0
20260906051508 60 68 0.0 0.0 0.00 0.18 0.00 92 1015.0
20260906050006 60 67 0.0 0.0 0.00 0.18 0.00 91 1015.2
20260906044505 61 67 0.0 0.0 0.00 0.18 0.00 91 1015.1
20260906043004 61 67 0.0 0.0 0.00 0.18 0.00 91 1014.9
20260906041502 61 67 0.0 0.0 0.00 0.18 0.00 91 1015.1
20260906040106 61 67 0.0 0.0 0.00 0.18 0.18 91 1015.2
20260906034604 62 67 0.0 0.0 0.00 0.18 0.18 90 1015.1
20260906033059 62 67 0.0 0.0 0.00 0.18 0.18 90 1015.0
20260906031557 62 67 0.0 0.0 0.00 0.18 0.18 89 1015.2
20260906030101 63 68 0.0 0.0 0.00 0.18 0.18 89 1015.0
20260906024558 63 67 0.0 0.0 0.00 0.18 0.18 88 1014.9
20260906023052 64 67 0.0 0.0 0.00 0.18 0.18 88 1014.8
20260906021549 64 67 0.0 0.0 0.00 0.18 0.18 86 1014.6
20260906020047 64 67 0.0 0.0 0.00 0.18 0.18 85 1014.6
20260906014615 65 67 0.0 0.0 0.00 0.18 0.18 83 1014.5
20260906013048 65 67 0.0 0.0 0.00 0.18 0.18 81 1014.4
20260906011542 66 67 0.0 0.0 0.00 0.18 0.18 81 1014.5
20260906010044 66 67 0.0 0.0 0.00 0.18 0.18 78 1014.3
20260906004537 67 67 0.0 0.0 0.00 0.18 0.18 77 1014.0
20260906003034 68 67 0.0 0.0 0.00 0.18 0.18 77 1014.1
20260906001534 68 67 0.0 0.0 0.00 0.18 0.18 76 1014.0
20260906000037 69 67 0.0 0.0 0.00 0.18 0.18 75 1013.9
20260905234535 70 68 0.0 0.0 0.00 0.18 0.18 73 1013.6
20260905233032 71 67 0.0 0.0 0.00 0.18 0.18 72 1013.7
20260905231531 72 77 0.0 3.0 0.00 0.18 0.18 66 1013.6
20260905230030 72 64 0.0 6.0 0.00 0.18 0.18 65 1013.5
20260905224530 72 94 0.0 7.0 0.00 0.18 0.18 68 1013.5
20260905223029 73 246 0.0 6.0 0.00 0.18 0.18 70 1013.4
20260905221528 73 37 1.0 9.0 0.00 0.18 0.18 70 1013.3
20260905220028 73 81 2.0 12.0 0.00 0.18 0.18 69 1013.2
20260905214530 74 32 1.0 9.0 0.00 0.18 0.18 71 1012.9
20260905213026 74 69 2.0 9.0 0.00 0.18 0.18 71 1012.9
20260905211534 73 250 0.0 8.0 0.00 0.18 0.18 75 1012.8
20260905210024 73 42 0.0 5.0 0.00 0.18 0.18 75 1012.8